[[{"header":{"parameterUnit":"m.s-1","parameterCategory":1,"la1":30.2991,"la2":30.254,"lo1":-89.0895,"lo2":-89.0444,"dy":0.0017,"dx":0.0017,"nx":28,"ny":28,"refTime":"2024-08-25T03:00:00:Z","depth":0,"parameterNumber":2,"parameterNumberName":"U-component_of_WINDS"},"data":[0,0,0,0,0,0,0,0,0,0,0,0,0,0,0,0,0,0,0,0,0,0,0,0,0,0,0,0,0,0,0,0,0,0,0,0,0,0,0,0,0,0,0,0,0,0,0,0,0,0,0,0,0,0,0,0,0,0,-3.5559,-3.5558,0,-3.5487,-3.5487,-3.5486,-3.5322,-3.5319,-3.5315,-3.5312,-3.5245,-3.5246,-3.5248,0,0,0,0,0,0,0,0,0,0,0,0,0,-3.556,-3.5561,-3.5559,-3.5558,-3.5557,-3.5488,-3.5487,-3.5486,-3.5323,-3.5319,-3.5314,-3.5311,-3.5245,-3.5246,-3.5248,0,0,0,0,0,0,0,0,0,0,0,0,0,-3.5532,-3.5561,-3.5559,-3.5467,-3.5458,-3.5488,-3.5487,-3.5485,-3.5324,-3.5318,-3.5313,-3.5309,-3.5244,-3.5246,-3.5248,-3.5363,0,0,-3.5255,-3.5255,0,0,0,0,0,0,0,0,-3.5533,-3.5532,-3.5481,-3.5473,-3.5463,-3.5408,-3.5462,-3.5445,-3.5325,-3.5375,-3.5312,-3.5306,-3.5304,-3.5301,-3.5299,-3.536,-3.5357,-3.5255,-3.5256,-3.5257,-3.5257,0,0,0,0,0,0,0,-3.5536,-3.5534,-3.5531,-3.5481,-3.547,-3.5432,-3.5422,-3.5458,-3.5369,-3.537,-3.5358,-3.5352,-3.5298,-3.5297,-3.5296,-3.5356,-3.5255,-3.5257,-3.5258,-3.5259,-3.5509,-3.5514,0,0,0,0,0,0,-3.555,-3.5537,-3.5533,-3.5528,-3.5486,-3.5436,-3.5425,-3.5431,-3.5368,-3.5354,-3.5356,-3.5344,-3.5296,-3.5294,-3.5293,-3.5422,-3.5257,-3.5259,-3.526,-3.5503,-3.551,-3.5516,0,0,0,0,0,0,-3.5551,-3.5551,-3.5536,-3.5529,-3.5524,-3.5441,-3.545,-3.5433,-3.5431,-3.5357,-3.5341,-3.5371,-3.5292,-3.529,-3.5346,-3.5418,-3.526,-3.5262,-3.5497,-3.5505,-3.5513,-3.5683,0,0,0,0,0,0,-3.5551,-3.5552,-3.5593,-3.5531,-3.5525,-3.5589,-3.5454,-3.5435,-3.5435,-3.5419,-3.5367,-3.5354,-3.5288,-3.5344,-3.5349,-3.5418,-3.5263,-3.549,-3.5501,-3.551,-3.5671,-3.5696,-3.5718,0,0,0,0,0,-3.5552,-3.5645,-3.5596,-3.5597,-3.5574,-3.5593,-3.559,-3.551,-3.5441,-3.5482,-3.5435,-3.5355,-3.541,-3.5352,-3.5355,-3.5426,-3.5485,-3.5498,-3.5509,-3.566,-3.5691,-3.5717,0,0,0,0,0,0,-3.5719,-3.5635,-3.558,-3.5656,-3.5633,-3.5565,-3.5615,-3.5546,-3.5543,-3.5528,-3.5432,-3.5422,-3.5492,-3.5465,-3.5401,-3.5534,-3.5435,-3.5448,-3.5549,-3.5577,-3.56,-3.5604,-3.5265,0,0,0,0,0,-3.5765,-3.5785,-3.5712,-3.5786,-3.5777,-3.5699,-3.5704,-3.5645,-3.5618,-3.5608,-3.5564,-3.5543,-3.5555,-3.5565,-3.5572,-3.5668,-3.5654,-3.5718,-3.5742,-3.5762,-3.5774,-3.5822,-3.585,-3.5556,-3.5555,-3.5555,0,0,-3.5859,-3.5816,-3.5835,-3.5818,-3.5793,-3.5818,-3.5691,-3.5723,-3.5741,-3.5613,-3.5662,-3.5631,-3.5601,-3.5677,-3.5709,-3.5657,-3.5853,-3.5777,-3.5793,-3.5794,-3.5838,-3.5865,-3.589,-3.5564,-3.5562,-3.5561,0,0,-3.6043,-3.6013,-3.6071,-3.6049,-3.6012,-3.596,-3.5975,-3.5918,-3.5892,-3.594,-3.5844,-3.5866,-3.5889,-3.5872,-3.5866,-3.6047,-3.5973,-3.6053,-3.6174,-3.6223,-3.6246,-3.6266,-3.633,-3.6354,-3.6065,-3.6066,-3.6066,0,-3.6166,-3.6197,-3.611,-3.6147,-3.6143,-3.6028,-3.6087,-3.6071,-3.604,-3.6041,-3.5984,-3.601,-3.5982,-3.6052,-3.6097,-3.6097,-3.6111,-3.6056,-3.6249,-3.6269,-3.6286,-3.6346,-3.637,-3.6075,-3.6074,-3.6073,-3.6072,0,-3.6349,-3.6373,-3.6424,-3.6395,-3.6397,-3.6446,-3.6369,-3.6382,-3.6324,-3.6279,-3.6331,-3.6293,-3.6291,-3.6304,-3.6249,-3.6368,-3.6336,-3.6266,-3.6164,-3.6325,-3.6379,-3.6402,-3.6089,-3.6086,-3.6083,-3.6081,0,0,-3.6633,-3.6556,-3.6577,-3.6562,-3.6515,-3.6533,-3.6578,-3.6574,-3.6587,-3.6571,-3.6606,-3.663,-3.6564,-3.6558,-3.65,-3.6543,-3.6688,-3.6467,-3.6465,-3.6508,-3.6817,-3.6869,-3.6896,-3.6641,-3.6645,-3.6648,-3.6819,0,-3.6804,-3.6872,-3.6797,-3.6882,-3.6903,-3.6796,-3.6835,-3.6812,-3.6772,-3.6787,-3.6743,-3.6761,-3.6674,-3.6669,-3.6707,-3.6663,-3.6749,-3.665,-3.6673,-3.6675,-3.6681,-3.6925,-3.6979,-3.7142,-3.684,-3.6843,-3.6846,0,-3.7011,-3.7003,-3.709,-3.7038,-3.7044,-3.7081,-3.7071,-3.7086,-3.7059,-3.7027,-3.7022,-3.6951,-3.6994,-3.6897,-3.6954,-3.6889,-3.6895,-3.6875,-3.688,-3.6876,-3.6768,-3.6927,-3.7192,-3.7216,-3.6879,-3.6876,-3.6874,0,-3.7208,-3.722,-3.7272,-3.7264,-3.7205,-3.7233,-3.7211,-3.7178,-3.7181,-3.7175,-3.7176,-3.7176,-3.7176,-3.7178,-3.7111,-3.7046,-3.7177,-3.7074,-3.7152,-3.7154,-3.7182,-3.7181,-3.745,-3.7191,-3.719,-3.719,-3.7189,0,-3.7405,-3.7462,-3.736,-3.7393,-3.7454,-3.7369,-3.7434,-3.74,-3.7373,-3.7399,-3.7308,-3.7335,-3.7245,-3.7263,-3.7212,-3.7267,-3.7269,-3.7245,-3.723,-3.7251,-3.7254,-3.7252,-3.7238,-3.7196,-3.7195,-3.7194,-3.7193,0,-3.7634,-3.7567,-3.7618,-3.7559,-3.7545,-3.7594,-3.7543,-3.7573,-3.7528,-3.7562,-3.7565,-3.7496,-3.7512,-3.7446,-3.7453,-3.7418,-3.75,-3.7468,-3.7509,-3.7498,-3.7579,-3.7572,-3.7854,-3.7887,-3.7609,-3.7612,-3.7614,0,-3.7762,-3.7803,-3.7749,-3.7758,-3.774,-3.7758,-3.776,-3.768,-3.7686,-3.7659,-3.7692,-3.7701,-3.7704,-3.7736,-3.7687,-3.7692,-3.7658,-3.7757,-3.7658,-3.7679,-3.7658,-3.7655,-3.7659,-3.7777,-3.778,-3.7783,-3.7785,0,-3.7998,-3.7963,-3.7968,-3.7964,-3.7969,-3.7962,-3.7949,-3.7963,-3.7877,-3.7889,-3.7904,-3.7907,-3.7913,-3.7923,-3.7918,-3.7897,-3.7828,-3.7817,-3.7835,-3.7856,-3.7877,-3.7866,-3.7562,-3.781,-3.7808,-3.7806,-3.7805,-3.7804,-3.8178,-3.821,-3.8176,-3.8186,-3.8168,-3.8159,-3.8183,-3.8141,-3.8152,-3.8148,-3.8102,-3.8127,-3.8101,-3.8086,-3.8072,-3.8092,-3.8046,-3.8072,-3.8079,-3.8086,-3.8099,-3.7877,-3.8091,-3.809,-3.809,-3.8089,-3.8088,0,-3.8407,-3.8381,-3.8391,-3.8375,-3.8384,-3.8317,-3.83,-3.8312,-3.8334,-3.8315,-3.8319,-3.8338,-3.8349,-3.8302,-3.8306,-3.8331,-3.8299,-3.8335,-3.8331,-3.8327,-3.8141,-3.8124,-3.836,-3.836,-3.836,-3.836,-3.836,-3.836,-3.8527,-3.8577,-3.8539,-3.858,-3.8554,-3.8576,-3.8572,-3.8563,-3.8547,-3.8571,-3.8579,-3.8548,-3.8518,-3.852,-3.8527,-3.8513,-3.8519,-3.8565,-3.8541,-3.8367,-3.834,-3.8315,-3.8298,-3.8567,-3.8568,-3.8724,-3.8726,-3.8727]},{"header":{"parameterUnit":"m.s-1","parameterCategory":1,"la1":30.2991,"la2":30.254,"lo1":-89.0895,"lo2":-89.0444,"dy":0.0017,"dx":0.0017,"nx":28,"ny":28,"refTime":"2024-08-25T03:00:00:Z","depth":0,"parameterNumber":3,"parameterNumberName":"V-component_of_WINDS"},"data":[0,0,0,0,0,0,0,0,0,0,0,0,0,0,0,0,0,0,0,0,0,0,0,0,0,0,0,0,0,0,0,0,0,0,0,0,0,0,0,0,0,0,0,0,0,0,0,0,0,0,0,0,0,0,0,0,0,0,2.6897,2.6898,0,2.696,2.6961,2.6962,2.7042,2.7043,2.7045,2.7046,2.7106,2.7106,2.7107,0,0,0,0,0,0,0,0,0,0,0,0,0,2.6841,2.6841,2.6897,2.6898,2.6898,2.696,2.6961,2.6962,2.7042,2.7043,2.7045,2.7046,2.7106,2.7106,2.7107,0,0,0,0,0,0,0,0,0,0,0,0,0,2.688,2.6841,2.6897,2.6946,2.6951,2.696,2.6961,2.6962,2.7041,2.7043,2.7045,2.7047,2.7106,2.7106,2.7107,2.7071,0,0,2.7109,2.7109,0,0,0,0,0,0,0,0,2.6878,2.6882,2.6938,2.6942,2.6948,2.6995,2.6963,2.6999,2.7041,2.7007,2.7046,2.7048,2.7067,2.7071,2.7079,2.7074,2.7077,2.7109,2.7109,2.7109,2.7109,0,0,0,0,0,0,0,2.6875,2.688,2.6922,2.6938,2.6945,2.6963,2.6971,2.697,2.7025,2.701,2.7016,2.7023,2.707,2.7078,2.708,2.7078,2.7109,2.7109,2.7109,2.711,2.7046,2.7045,0,0,0,0,0,0,2.6866,2.6877,2.692,2.6924,2.6917,2.6963,2.6972,2.6978,2.7025,2.7035,2.7021,2.7026,2.7076,2.708,2.7083,2.7044,2.7109,2.711,2.711,2.7048,2.7046,2.7044,0,0,0,0,0,0,2.6864,2.6869,2.6917,2.6902,2.691,2.6962,2.6968,2.6978,2.6986,2.7034,2.7043,2.7019,2.7077,2.7082,2.7074,2.7047,2.711,2.7111,2.7051,2.7048,2.7045,2.6965,0,0,0,0,0,0,2.6862,2.6868,2.6856,2.6901,2.691,2.6908,2.6967,2.6978,2.6987,2.6995,2.7034,2.7043,2.7079,2.7072,2.7074,2.7049,2.7111,2.7053,2.7049,2.7046,2.697,2.696,2.6951,0,0,0,0,0,2.686,2.683,2.6855,2.6859,2.6897,2.6906,2.6911,2.6956,2.6985,2.6972,2.7003,2.7041,2.705,2.7071,2.7074,2.7048,2.7055,2.7051,2.7046,2.6975,2.6962,2.6951,0,0,0,0,0,0,2.6778,2.6837,2.6865,2.6849,2.6872,2.692,2.6906,2.6941,2.6955,2.6961,2.7014,2.7022,2.7007,2.7027,2.7049,2.7016,2.7058,2.7054,2.7003,2.6991,2.6982,2.6976,2.7111,0,0,0,0,0,2.6759,2.6763,2.6814,2.6795,2.6805,2.6853,2.6859,2.6891,2.6917,2.6927,2.6957,2.6979,2.6987,2.699,2.7,2.6974,2.6983,2.6958,2.6948,2.694,2.6935,2.6922,2.6911,2.7029,2.7029,2.7029,0,0,2.6717,2.675,2.6749,2.6779,2.6801,2.6803,2.6861,2.686,2.6862,2.6926,2.692,2.6943,2.6971,2.6953,2.6947,2.697,2.6905,2.6934,2.6927,2.6927,2.6916,2.6904,2.6894,2.7026,2.7026,2.7027,0,0,2.6643,2.6669,2.6656,2.6677,2.671,2.6742,2.6739,2.6781,2.6799,2.6795,2.6843,2.6845,2.6857,2.6875,2.6885,2.6818,2.6853,2.682,2.6768,2.6754,2.6745,2.6737,2.6711,2.6702,2.6816,2.6815,2.6815,0,2.6588,2.6594,2.6644,2.6641,2.6652,2.6712,2.6698,2.6716,2.6749,2.6754,2.678,2.6797,2.682,2.6807,2.679,2.6798,2.6794,2.6815,2.6743,2.6735,2.6728,2.6704,2.6695,2.6811,2.6811,2.6812,2.6812,0,2.6523,2.6527,2.6512,2.6544,2.6554,2.6545,2.6592,2.6596,2.6627,2.6656,2.665,2.668,2.6697,2.6697,2.6727,2.6687,2.67,2.6733,2.6776,2.6712,2.669,2.6682,2.6805,2.6806,2.6808,2.6809,0,0,2.6398,2.6459,2.6453,2.6468,2.6509,2.6511,2.6505,2.6523,2.6524,2.6545,2.654,2.6549,2.658,2.6592,2.6625,2.6613,2.6556,2.6648,2.6649,2.6628,2.6513,2.6487,2.6475,2.6581,2.6579,2.6578,2.651,0,2.633,2.6324,2.6369,2.635,2.6353,2.641,2.6405,2.6428,2.6455,2.646,2.649,2.6495,2.6537,2.6544,2.6535,2.6565,2.6534,2.6571,2.6574,2.6574,2.6564,2.6465,2.6437,2.6371,2.6502,2.6501,2.65,0,2.625,2.6268,2.625,2.6291,2.6294,2.6288,2.6308,2.6313,2.634,2.6361,2.6374,2.6413,2.6408,2.645,2.6443,2.6467,2.6471,2.6486,2.6485,2.6485,2.6531,2.6461,2.6352,2.6341,2.6487,2.6488,2.6489,0,2.6159,2.6179,2.617,2.6182,2.623,2.6224,2.6244,2.6274,2.6281,2.6298,2.6303,2.6318,2.6326,2.6336,2.6377,2.6405,2.6365,2.6411,2.638,2.6378,2.6367,2.6367,2.6255,2.6372,2.6373,2.6373,2.6373,0,2.6078,2.6064,2.613,2.6124,2.611,2.6161,2.6145,2.617,2.6196,2.6195,2.6246,2.6243,2.6298,2.6302,2.6334,2.6322,2.6325,2.634,2.6349,2.6335,2.6333,2.6337,2.6342,2.637,2.6371,2.6371,2.6372,0,2.5973,2.6017,2.6011,2.6058,2.6069,2.6056,2.6096,2.6091,2.6122,2.612,2.6123,2.617,2.6177,2.6219,2.6235,2.6256,2.6232,2.625,2.6223,2.6228,2.6194,2.6196,2.608,2.6067,2.6193,2.6192,2.6191,0,2.5917,2.5908,2.5954,2.5958,2.5976,2.5981,2.599,2.604,2.6046,2.6077,2.6068,2.6079,2.6091,2.6098,2.6133,2.6145,2.6163,2.6122,2.6165,2.6151,2.616,2.616,2.6158,2.6111,2.611,2.6109,2.6107,0,2.5814,2.5836,2.5847,2.5865,2.5874,2.5891,2.591,2.591,2.5965,2.5969,2.5978,2.5986,2.6003,2.6013,2.6031,2.605,2.6087,2.6094,2.6087,2.6072,2.6056,2.6063,2.6196,2.6096,2.6097,2.6098,2.6098,2.6099,2.5731,2.5725,2.5757,2.5767,2.5787,2.5804,2.5802,2.5833,2.5842,2.586,2.5889,2.5892,2.5919,2.5948,2.5964,2.5966,2.5988,2.5978,2.5976,2.5972,2.5964,2.6057,2.597,2.597,2.5971,2.5971,2.5971,0,2.5629,2.5653,2.5662,2.5688,2.5695,2.5732,2.5755,2.5758,2.5761,2.5784,2.5794,2.5803,2.5813,2.5848,2.5861,2.5856,2.5874,2.5858,2.5858,2.5861,2.5945,2.5949,2.5844,2.5844,2.5844,2.5844,2.5844,2.5844,2.5577,2.5569,2.5595,2.5596,2.5619,2.5624,2.5634,2.5649,2.5668,2.5676,2.5684,2.5708,2.5736,2.5751,2.5761,2.5771,2.5773,2.5751,2.5766,2.5843,2.5856,2.5867,2.5871,2.5751,2.5751,2.5683,2.5682,2.5682]}]]